AirNav   Everest Fuels
 
 831 users online  

15MA Canapitsit Airport
Gosnold, Massachusetts, USA

GOING TO GOSNOLD?


FAA INFORMATION EFFECTIVE 28 MARCH 2019

Location

FAA Identifier: 15MA
Lat/Long: 41-25-20.3880N / 070-54-34.1240W
41-25.339800N / 070-54.568733W
41.4223300 / -70.9094789
(estimated)
Elevation: 10 ft. / 3 m (estimated)
Variation: 15W (1990)
From city: 1 mile E of GOSNOLD, MA
Time zone: UTC -4 (UTC -5 during Standard Time)
Zip code: 02713

Airport Operations

Airport use: Private use. Permission required prior to landing
Activation date: 01/1993
Control tower: no
ARTCC: BOSTON CENTER
FSS: BRIDGEPORT FLIGHT SERVICE STATION
Attendance: UNATNDD
Wind indicator: yes
Segmented circle: no

Airport Communications

WX ASOS at MVY (13 nm E): 126.25 (508-696-6988)
WX ASOS at EWB (15 nm N): 126.85 (508-992-0195)
WX ASOS at UUU (18 nm W): 132.075 (401-846-5910)

Nearby radio navigation aids

VOR radial/distance  VOR name  Freq  Var
MVYr292/13.4MARTHAS VINEYARD VOR/DME114.5015W
PVDr142/29.6PROVIDENCE VOR/DME115.6014W
SEYr078/33.7SANDY POINT VOR/DME117.8015W

 
NDB name  Hdg/Dist  Freq  Var  ID
TAUNTON186/27.622716WTAN - .- -.

Airport Services

Runway Information

Runway 12/30

Dimensions: 700 x 20 ft. / 213 x 6 m
Surface: turf
RUNWAY 12  RUNWAY 30
Traffic pattern: leftleft

Airport Ownership and Management from official FAA records

Ownership: Privately-owned
Owner: MELBOURNE S DORR
15 GILMORE RD
SOUTHBOROUGH, MA 01772
Phone 508-877-0030
Manager: MELBOURNE S DORR
15 GILMORE RD
SOUTHBOROUGH, MA 01772
Phone 508-877-0030

Additional Remarks

HIGH GRASS IN PRIMARY SURFACE OF BOTH RYS. HIGH DUNE IN RY 12 APCH.

Instrument Procedures

There are no published instrument procedures at 15MA.

Some nearby airports with instrument procedures:

KMVY - Martha's Vineyard Airport (13 nm E)
KEWB - New Bedford Regional Airport (15 nm N)
KUUU - Newport State Airport (18 nm W)
KFMH - Cape Cod Coast Guard Air Station (22 nm NE)
KOQU - Quonset State Airport (25 nm NW)
 
Loc | Ops | Rwys | IFR | FBO | Links
Com | Nav | Svcs | Stats | Notes
Area around 15MA (Canapitsit Airport)
 
Road maps at: MapQuest Bing Google
 
Aerial photo
No photo
 
Sectional chart

 
Airport distance calculator
Flying to Canapitsit Airport? Find the distance to fly.

From to 15MA

Sunrise and sunset
Times for 19-Apr-2019
 Local
(UTC-4)
 Zulu
(UTC)
Morning civil twilight05:3009:30
Sunrise05:5909:59
Sunset19:2723:27
Evening civil twilight19:5623:56

Current date and time
Zulu (UTC)  20-Apr-2019 01:34:03
Local (UTC-4)  19-Apr-2019 21:34:03
 
METAR
KMVY 
13nm E 
200107Z AUTO 19016G24KT 5SM BR BKN004 BKN025 OVC075 14/12 A2991 RMK AO2 T01390122
KEWB 
16nm N 
200053Z 20016G24KT 10SM BKN010 BKN029 OVC044 17/17 A2987 RMK AO2 PK WND 21032/0040 SLP116 T01720172
KUUU 
18nm W 
200053Z AUTO 18012KT 1 3/4SM BR OVC002 13/13 A2988 RMK AO2 SLP118 T01280128
KFMH 
22nm NE 
200115Z AUTO 20018G24KT 7SM OVC010 18/16 A2991 RMK AO2
KOQU 
25nm NW 
200050Z 21014G26KT 3SM BR BKN009 OVC011 16/15 A2985
TAF
KFMH 
22nm NE 
192054Z 1921/2018 21020G33KT P6SM VCSH SCT015 OVC025 WS020/22050KT FM192300 21016G36KT 4SM BR OVC015 WS020/22050KT FM200000 20015G25KT 2SM BR OVC008 WS020/21050KT FM201100 19016G27KT 1 1/2SM BR VCSH OVC003 WS020/20050KT FM201400 18017G28KT 1 1/2SM -SHRA BR OVC003 WS020/20050KT
NOTAMs
Click for the latest NOTAMs
NOTAMs are issued by the DoD/FAA and will open in a separate window not controlled by AirNav.

 

 
 

Would you like to see your business listed on this page?

 If your business provides an interesting product or service to pilots, flight crews, aircraft, or users of the Canapitsit Airport, you should consider listing it here.  To start the listing process, click on the button below
 
Add a business
 

Other Pages about Canapitsit Airport

Update a link
 
Copyright © AirNav, LLC. All rights reserved. Privacy Policy  Contact